Weather History for Ironwood, MI

Change the Weather History Date:

Sunday, March 9, 2014

  Actual Average Record
Temperature  
Mean Temperature 29 °F -  
Max Temperature 41 °F 27 °F 53 °F (2008)
Min Temperature 17 °F 10 °F -9 °F (2003)
Degree Days  
Heating Degree Days 36    
Moisture  
Dew Point 19 °F    
Average Humidity 60    
Maximum Humidity 70    
Minimum Humidity 52    
Precipitation  
Precipitation 0.00 in - - ()
Sea Level Pressure  
Sea Level Pressure 29.70 in    
Wind  
Wind Speed 10 mph (SW)    
Max Wind Speed 21 mph    
Max Gust Speed 29 mph    
Visibility 10 miles    
Events      
Averages and records for this station are not official NWS values.
T = Trace of Precipitation, MM = Missing Value Source: NWS Daily Summary

Daily Weather History Graph

Daily Weather History Graph

Search for Another Location

Airport:

Trip Planner

Search our weather history database for the weather conditions in past years. The results will help you decide how hot, cold, wet, or windy it might be!

Date:

Astronomy

Mar. 09, 2014 Rise Set
Actual Time 7:24 AM CDT 6:57 PM CDT
Civil Twilight 6:54 AM CDT 7:28 PM CDT
Nautical Twilight 6:19 AM CDT 8:03 PM CDT
Astronomical Twilight 5:44 AM CDT 8:38 PM CDT
Moon 12:35 PM CDT (3/9) 3:05 AM CDT (3/9)
Length of Visible Light 12h 33m
Length of Day
11h 33m
First Quarter, 61% of the Moon is Illuminated
Mar 9
First Quarter
Mar 16
Full
Mar 23
Last Quarter
Mar 30
New
Apr 7
First Quarter

Hourly Weather History & Observations

Time (CDT) Temp. Windchill Dew Point Humidity Pressure Visibility Wind Dir Wind Speed Gust Speed Precip Events Conditions
12:15 AM 17.6 °F 7.3 °F 6.8 °F 63% 30.03 in 10.0 mi SW 8.1 mph - N/A   Unknown
12:35 AM 17.6 °F 7.3 °F 6.8 °F 63% 30.03 in 10.0 mi SW 8.1 mph - N/A   Unknown
12:55 AM 17.6 °F 6.4 °F 5.0 °F 58% 30.03 in 10.0 mi SW 9.2 mph - N/A   Unknown
1:15 AM 17.6 °F 7.3 °F 6.8 °F 63% 30.01 in 10.0 mi SSW 8.1 mph - N/A   Unknown
1:35 AM 17.6 °F 5.7 °F 6.8 °F 63% 30.00 in 10.0 mi SW 10.4 mph - N/A   Unknown
1:55 AM 17.6 °F 7.3 °F 5.0 °F 58% 29.99 in 10.0 mi SW 8.1 mph - N/A   Unknown
3:15 AM 17.6 °F 6.4 °F 8.6 °F 68% 29.99 in 10.0 mi SW 9.2 mph - N/A   Unknown
3:35 AM 17.6 °F 6.4 °F 6.8 °F 63% 29.97 in 10.0 mi SW 9.2 mph - N/A   Unknown
3:55 AM 19.4 °F 8.6 °F 6.8 °F 58% 29.96 in 10.0 mi SW 9.2 mph - N/A   Unknown
4:15 AM 17.6 °F 7.3 °F 8.6 °F 68% 29.96 in 10.0 mi SW 8.1 mph - N/A   Unknown
4:35 AM 19.4 °F 9.5 °F 6.8 °F 58% 29.94 in 10.0 mi SW 8.1 mph - N/A   Unknown
4:55 AM 19.4 °F 7.9 °F 8.6 °F 63% 29.94 in 10.0 mi SW 10.4 mph - N/A   Unknown
5:15 AM 19.4 °F 7.2 °F 6.8 °F 58% 29.93 in 10.0 mi SW 11.5 mph - N/A   Unknown
5:35 AM 19.4 °F 8.6 °F 8.6 °F 63% 29.91 in 10.0 mi SW 9.2 mph - N/A   Unknown
5:55 AM 19.4 °F 7.2 °F 10.4 °F 68% 29.90 in 10.0 mi SW 11.5 mph - N/A   Unknown
6:15 AM 21.2 °F 10.9 °F 10.4 °F 63% 29.89 in 10.0 mi SSW 9.2 mph - N/A   Unknown
6:35 AM 21.2 °F 10.9 °F 10.4 °F 63% 29.87 in 10.0 mi South 9.2 mph - N/A   Unknown
6:55 AM 21.2 °F 9.5 °F 10.4 °F 63% 29.85 in 10.0 mi SSW 11.5 mph 18.4 mph N/A   Unknown
7:15 AM 21.2 °F 9.5 °F 10.4 °F 63% 29.84 in 10.0 mi SSW 11.5 mph 16.1 mph N/A   Unknown
7:35 AM 21.2 °F 10.9 °F 12.2 °F 68% 29.82 in 10.0 mi SSW 9.2 mph 19.6 mph N/A   Unknown
7:55 AM 21.2 °F 9.5 °F 12.2 °F 68% 29.82 in 10.0 mi SSW 11.5 mph 17.3 mph N/A   Unknown
8:15 AM 21.2 °F 9.5 °F 12.2 °F 68% 29.80 in 10.0 mi SSW 11.5 mph 16.1 mph N/A   Unknown
8:35 AM 24.8 °F 14.6 °F 14.0 °F 64% 29.78 in 10.0 mi SSW 10.4 mph - N/A   Unknown
8:55 AM 26.6 °F 13.4 °F 15.8 °F 64% 29.75 in 10.0 mi SSW 18.4 mph 26.5 mph N/A   Unknown
9:15 AM 26.6 °F 14.7 °F 15.8 °F 64% 29.74 in 10.0 mi SW 15.0 mph 20.7 mph N/A   Unknown
9:35 AM 28.4 °F 17.0 °F 15.8 °F 59% 29.72 in 10.0 mi SW 15.0 mph 25.3 mph N/A   Unknown
9:55 AM 28.4 °F 15.8 °F 17.6 °F 64% 29.71 in 10.0 mi SW 18.4 mph 24.2 mph N/A   Unknown
10:15 AM 30.2 °F 20.2 °F 19.4 °F 64% 29.68 in 10.0 mi SSW 12.7 mph 20.7 mph N/A   Unknown
10:35 AM 30.2 °F 18.9 °F 19.4 °F 64% 29.67 in 10.0 mi SW 16.1 mph 20.7 mph N/A   Unknown
10:55 AM 30.2 °F 19.3 °F 17.6 °F 60% 29.66 in 10.0 mi SSW 15.0 mph 23.0 mph N/A   Unknown
11:15 AM 32.0 °F 22.1 °F 19.4 °F 60% 29.65 in 10.0 mi SSW 13.8 mph 24.2 mph N/A   Unknown
11:35 AM 33.8 °F 22.8 °F 19.4 °F 56% 29.64 in 10.0 mi SW 18.4 mph 24.2 mph N/A   Unknown
11:55 AM 33.8 °F 22.5 °F 21.2 °F 60% 29.62 in 10.0 mi SSW 19.6 mph 27.6 mph N/A   Unknown
12:15 PM 35.6 °F 24.5 °F 21.2 °F 56% 29.61 in 10.0 mi SSW 20.7 mph 28.8 mph N/A   Unknown
12:35 PM 37.4 °F 27.5 °F 23.0 °F 56% 29.61 in 10.0 mi SW 18.4 mph 27.6 mph N/A   Unknown
12:55 PM 37.4 °F 27.2 °F 21.2 °F 52% 29.60 in 10.0 mi SW 19.6 mph 24.2 mph N/A   Unknown
1:15 PM 39.2 °F 31.2 °F 23.0 °F 52% 29.59 in 10.0 mi SSW 13.8 mph 23.0 mph N/A   Unknown
1:35 PM 39.2 °F 30.8 °F 23.0 °F 52% 29.59 in 10.0 mi SW 15.0 mph 20.7 mph N/A   Unknown
1:55 PM 39.2 °F 31.2 °F 23.0 °F 52% 29.57 in 10.0 mi SW 13.8 mph - N/A   Unknown
2:15 PM 39.2 °F 30.2 °F 24.8 °F 56% 29.56 in 10.0 mi SW 17.3 mph - N/A   Unknown
2:35 PM 41.0 °F 34.3 °F 24.8 °F 53% 29.55 in 10.0 mi SW 11.5 mph 24.2 mph N/A   Unknown
2:55 PM 39.2 °F 30.2 °F 23.0 °F 52% 29.56 in 10.0 mi SW 17.3 mph - N/A   Unknown
3:15 PM 39.2 °F 30.8 °F 23.0 °F 52% 29.56 in 10.0 mi SW 15.0 mph - N/A   Unknown
3:35 PM 39.2 °F 31.2 °F 24.8 °F 56% 29.55 in 10.0 mi SW 13.8 mph 18.4 mph N/A   Unknown
3:55 PM 39.2 °F 31.6 °F 23.0 °F 52% 29.55 in 10.0 mi SW 12.7 mph - N/A   Unknown
4:15 PM 39.2 °F 32.5 °F 23.0 °F 52% 29.55 in 10.0 mi SSW 10.4 mph - N/A   Unknown
4:35 PM 39.2 °F 32.5 °F 23.0 °F 52% 29.55 in 10.0 mi SSW 10.4 mph - N/A   Unknown
4:55 PM 41.0 °F 34.3 °F 24.8 °F 53% 29.54 in 10.0 mi SW 11.5 mph - N/A   Unknown
5:15 PM 41.0 °F 35.8 °F 24.8 °F 53% 29.55 in 10.0 mi SW 8.1 mph - N/A   Unknown
5:35 PM 41.0 °F 37.1 °F 24.8 °F 53% 29.55 in 10.0 mi SW 5.8 mph - N/A   Unknown
5:55 PM 41.0 °F 36.4 °F 24.8 °F 53% 29.55 in 10.0 mi SW 6.9 mph - N/A   Unknown
6:15 PM 41.0 °F 36.4 °F 24.8 °F 53% 29.55 in 10.0 mi SW 6.9 mph - N/A   Unknown
6:35 PM 41.0 °F 35.2 °F 26.6 °F 57% 29.56 in 10.0 mi SW 9.2 mph - N/A   Unknown
6:55 PM 41.0 °F 38.0 °F 24.8 °F 53% 29.56 in 10.0 mi SW 4.6 mph - N/A   Unknown
7:15 PM 41.0 °F 35.8 °F 26.6 °F 57% 29.56 in 10.0 mi SW 8.1 mph - N/A   Unknown
7:35 PM 39.2 °F 33.6 °F 26.6 °F 61% 29.57 in 10.0 mi SW 8.1 mph - N/A   Unknown
7:55 PM 39.2 °F 33.6 °F 26.6 °F 61% 29.57 in 10.0 mi SW 8.1 mph - N/A   Unknown
8:15 PM 39.2 °F 33.6 °F 26.6 °F 61% 29.59 in 10.0 mi WSW 8.1 mph - N/A   Unknown
8:35 PM 39.2 °F 33.0 °F 26.6 °F 61% 29.58 in 10.0 mi SW 9.2 mph - N/A   Unknown
8:55 PM 39.2 °F 34.2 °F 26.6 °F 61% 29.58 in 10.0 mi SW 6.9 mph - N/A   Unknown
9:15 PM 39.2 °F 34.2 °F 26.6 °F 61% 29.58 in 10.0 mi SW 6.9 mph - N/A   Unknown
9:35 PM 39.2 °F 35.0 °F 26.6 °F 61% 29.59 in 10.0 mi SW 5.8 mph - N/A   Unknown
9:55 PM 39.2 °F 34.2 °F 26.6 °F 61% 29.58 in 10.0 mi SW 6.9 mph - N/A   Unknown
10:15 PM 39.2 °F 33.0 °F 26.6 °F 61% 29.58 in 10.0 mi SW 9.2 mph - N/A   Unknown
10:35 PM 37.4 °F 31.4 °F 26.6 °F 65% 29.57 in 10.0 mi SW 8.1 mph - N/A   Unknown
10:55 PM 37.4 °F 32.1 °F 26.6 °F 65% 29.58 in 10.0 mi WSW 6.9 mph - N/A   Unknown
11:15 PM 37.4 °F 31.4 °F 28.4 °F 70% 29.57 in 10.0 mi WSW 8.1 mph - N/A   Unknown
11:35 PM 37.4 °F 32.1 °F 26.6 °F 65% 29.57 in 10.0 mi SW 6.9 mph - N/A   Unknown
11:55 PM 37.4 °F 32.1 °F 26.6 °F 65% 29.56 in 10.0 mi SW 6.9 mph - N/A   Unknown
12:15 AM 37.4 °F 32.1 °F 26.6 °F 65% 29.56 in 10.0 mi SW 6.9 mph - N/A   Unknown
12:35 AM 37.4 °F 31.4 °F 26.6 °F 65% 29.57 in 10.0 mi SW 8.1 mph - N/A   Unknown
12:55 AM 37.4 °F 32.1 °F 26.6 °F 65% 29.55 in 10.0 mi SSW 6.9 mph - N/A   Unknown